Regional Weather Roundup
Issued by NWS Charleston, SC

Current Version | Previous Version | Text Only | Print | Product List | Glossary Off
Versions: 1 2 3 4 5 6 7 8 9 10 11 12 13 14 15 16 17 18 19 20 21 22 23 24 25 26 27 28 29 30 31 32 33 34 35 36 37 38 39 40 41 42 43 44 45 46 47 48 49 50
000 ASUS42 KCHS 031227 RWRCHS REGIONAL WEATHER ROUNDUP NATIONAL WEATHER SERVICE CHARLESTON SC 800 AM EDT THU SEP 03 2015 NOTE: "FAIR" INDICATES FEW OR NO CLOUDS BELOW 12,000 FEET WITH NO SIGNIFICANT WEATHER AND/OR OBSTRUCTIONS TO VISIBILITY. NOT ALL STATIONS ARE QUALITY CONTROLLED BY THE NATIONAL WEATHER SERVICE. USE DATA WITH CAUTION...ESPECIALLY DEWPOINT OBSERVATIONS. SCZ027-030-031-034>040-042>050-031300- ...SOUTHEAST SOUTH CAROLINA... CITY SKY/WX TMP DP RH WIND PRES REMARKS N CHARLESTON PTSUNNY 76 72 87 CALM 29.96R 6HR MIN TEMP: 74; 6HR MAX TEMP: 76; WATERFRONT PRK N/A 78 73 84 VRB3 29.92R MOUNT PLEASANT LGT RAIN 75 75 100 CALM 29.96R JOHNS ISLAND FAIR 79 73 83 CALM 29.97R PINOPOLIS N/A 81 73 78 W5 29.88R MONCKS CORNER FAIR 75 72 88 CALM 29.97R SUMMERVILLE FAIR 73 73 100 CALM 29.98R BEAUFORT MCAS CLOUDY 76 73 91 CALM 29.98R 6HR MIN TEMP: 75; 6HR MAX TEMP: 77; BEAUFORT ARPT CLOUDY 75 73 94 CALM 29.98R HILTON HEAD IS LGT RAIN 73 73 100 S6 29.98R WALTERBORO MOSUNNY 77 73 88 CALM 29.98R ALLENDALE FAIR 75 73 94 CALM 29.97R ...SOUTHERN MIDLANDS AND PEE DEE... CITY SKY/WX TMP DP RH WIND PRES REMARKS GEORGETOWN NOT AVBL KINGSTREE NOT AVBL ORANGEBURG MOSUNNY 74 71 91 NW5 29.96R 6HR MIN TEMP: 72; 6HR MAX TEMP: 74; BARNWELL FAIR 75 73 94 NW3 29.99R AIKEN FAIR 72 70 94 W3 30.02R MANNING FAIR 73 72 94 CALM 29.96R COLUMBIA PTSUNNY 75 71 87 W5 29.96R 6HR MIN TEMP: 74; 6HR MAX TEMP: 77; SUMTER MOSUNNY 75 72 90 W6 29.94R 6HR MIN TEMP: 74; 6HR MAX TEMP: 77; FLORENCE MOSUNNY 76 73 91 CALM 29.94R 6HR MIN TEMP: 75; 6HR MAX TEMP: 78; MYRTLE BEACH MOSUNNY 77 72 83 N9 29.97R N MYRTLE BEACH SUNNY 77 74 90 SW3 29.94R 6HR MIN TEMP: 74; 6HR MAX TEMP: 77; $$ GAZ063-065-086>088-099>101-113>116-118-119-134>141-150-031300- ...SOUTHEAST GEORGIA... CITY SKY/WX TMP DP RH WIND PRES REMARKS SAVANNAH ARPT CLOUDY 74 72 93 N6 29.96R 6HR MIN TEMP: 74; 6HR MAX TEMP: 75; 6HR PCP: TRACE; HUNTER AAF HVY RAIN 75 75 100 NE7 29.94R FOG 6HR MIN TEMP: 75; 6HR MAX TEMP: 77; 6HR PCP: TRACE; FORT STEWART CLOUDY 75 73 93 CALM 29.94R 6HR MIN TEMP: 74; 6HR MAX TEMP: 75; 6HR PCP: TRACE; STATESBORO PTSUNNY 74 32 21 CALM 29.98R SYLVANIA NOT AVBL CLAXTON NOT AVBL ...CSRA...CENTRAL AND FAR SOUTHEAST GEORGIA... CITY SKY/WX TMP DP RH WIND PRES REMARKS THOMSON CLOUDY 74 74 100 CALM 30.03R AUGUSTA-BUSH PTSUNNY 73 72 96 W3 29.96R 6HR MIN TEMP: 71; 6HR MAX TEMP: 73; AUGUSTA-DANIEL PTSUNNY 76 71 85 CALM 29.98R SWAINSBORO PTSUNNY 73 72 94 CALM 30.00R VIDALIA PTSUNNY 73 72 94 CALM 29.99R EASTMAN FAIR 74 74 100 CALM 30.02R HAZLEHURST CLOUDY 74 74 100 CALM 29.98R FOG ALMA FOG 73 73 100 NW3 29.98R VSB 1 6HR MIN TEMP: 72; 6HR MAX TEMP: 74; WAYCROSS CLOUDY 76 76 100 CALM 30.03R FOG JESUP CLOUDY 79 77 94 CALM 29.98R FOG BAXLEY CLOUDY 73 73 100 NW3 29.98R FOG BRUNSWICK CLOUDY 72 72 100 W5 29.97R SAINT SIMONS CLOUDY 74 74 100 VRB6 29.95R 6HR MIN TEMP: 73; 6HR MAX TEMP: 76; 6HR PCP: TRACE; $$ SCZ027-028-034-036>038-045-046-048>050-GAZ119-141-031300- ...LAKE AND SUPPLEMENTAL COASTAL OBSERVATIONS... STATION/POSITION TIME TEMP WIND PRES WAVE SWELL AIR SEA DIR/SP/G HT/PER HT/PER/DIR (UTC) (F) (DEG/KT/KT) (MB) (FT/S) (FT/S/D) UPR LAKE MARION NOT AVBL WINYAH BAY 1145 76 270/ 2 1013.0S LAKE MURRAY 1100 76 290/ 3/ 5 1013.9R ACE BASIN NERRS NOT AVBL FORT PULASKI 1100 77 83 10/ 5/ 8 1014.0R SAPELO ISLAND 1200 76 300/ 6 1014.0R $$ ANZ835-935-AMZ111-154-330-350-352-354-370-450-454-472-031300- ...C-MAN AND BUOY OBSERVATIONS... STATION/POSITION TIME TEMP WIND PRES WAVE SWELL AIR SEA DIR/SP/G HT/PER HT/PER/DIR (UTC) (F) (DEG/KT/KT) (MB) (FT/S) (FT/S/D) BUOY 41004 1150 82 83 330/ 2/ 2 1014.0R 2/ 7 2/ 7 BUOY 41008 1150 79 84 250/ 10/ 12 1013.4S 2/ 4 2/100/ 8 FOLLY BEACH CMAN 1200 77 290/ 2/ 2 1014.7R CAPERS NEARSHORE 1108 80 340/ 6/ 8 1013.9S FRIPP NEARSHORE 1100 80 210/ 8/ 10 1013.7 STATION/POSITION TIME TEMP WIND PRES WAVE SWELL AIR SEA DIR/SP/G HT/PER HT/PER/DIR (UTC) (F) (DEG/KT/KT) (MB) (FT/S) (FT/S/D) 5E ST. MARYS GA 1121 85 N/A 2/ 9 FRYING PAN BUOY 1150 82 81 30/ 4/ 6 1014.1R 2/ 8 2/140/ 8 BUOY 41025 1150 80 85 330/ 10/ 12 1013.3R 2/13 2/180/13 CAPE LOOKOUT NC 1200 74 360/ 8/ 9 1013.2R BUOY 41002 1150 83 83 330/ 8/ 10 1013.7R 2/14 2/ 70/14 BUOY 41010 1120 84 86 210/ 8/ 8 1015.3R ST AUGUSTINE FL 1200 76 82 220/ 4/ 5 1015.6R $$

USA.gov is the U.S. government's official web portal to all federal, state and local government web resources and services.